"Pseudo-MPEC" for P21vBHf

Created 2022 Aug 24 21:22:34 UT using Find_Orb

Click here for an explanation of pseudo-MPECs

 
 Astrometry: 
     P21vBHf* C2022 07 29XC!An(xAV$R^%_KJ5o.HSh,7a,d!]xFoA!6j*ie`m=yrJvkt^n'LF52
     P21vBHf  C2022 07 293`]hC[h9Wj)Gtr24?)3k`8AQ2%y9,2?`o.^*Pw;@Zn-(]L2prb_#F52
     P21vBHf  C2022 07 29te#hqWTj=#RU-)R##g?rtU4%r`h2cQ@^Hw8lo;yJ#\WZ_xy1LU@LF52
     P21vBHf KC2022 07 30iE)BWm^.gw0?5Vh+/8bkIB+GupMQ7tky$30Kqr8H\18lyCl_Go',H21
     P21vBHf KC2022 07 30q#D-nD(_w`r-1CAstrometry%#la5^.4[0Z@WPGG#Akei6GN3-uCH21
     P21vBHf KC2022 07 30Tuip0M$yb4Y(E/)cVa^LMls!YUTxy/sB%^J)]2q;xZ6_8el*^Gd#H21
     P21vBHf |C2022 08 01pV'jR,Niei`[^#a\]RvUjaGOFI9redacted;L15(mYZya7C)a`#w807
     P21vBHf |C2022 08 01UPSy8TN8#AVO-E1XFS?7vyqZa5@dirs@%rXYGJ7BZ@O,O8R)2iY1807
     P21vBHf |C2022 08 01:9rO46r,/81\JD]t[%UVU5b*Mng_7GqQ:CNZxZCkE%oDbDYhS5wh807
     P21vBHf ^C2022 08 01.46820623 06 56.008+02 23 17.10   ~81D7 21.60GVNEOCP568
     P21vBHf ^C2022 08 01.46918423 06 55.912+02 23 17.72   ~81D7 21.68GVNEOCP568
     P21vBHf ^C2022 08 01.47016123 06 55.815+02 23 18.38   ~81D7 21.70GVNEOCP568
     P21vBHf KC2022 08 06w[okI/(J3d#997lM[7M`,q#PPE)fBclickK=#Ac*EP0YogLb%5`UH21
     P21vBHf KC2022 08 06b3#FdHPPDUGHP0NZVYDi(2;j74YQivQ_//,s16#VkKXB5`E?G4GYH21
     P21vBHf KC2022 08 06P7JdK!-G,GV;SP'i-]42oVHU3GuZ\vmfhq*9rk`$8ptk!4.8It-YH21
     P21vBHf KC2022 08 06Bblj]4MFVDPoA/uZ%o%ZJnhb=bov_WC)oIc)Q/_u_.herelZ=gnvH21
     P21vBHf KC2022 08 076tV`hxH_;q5N2]C\F3U?bnMTNDuwueq+%9*'RyxgSM6J66+#EJ?9H21
     P21vBHf KC2022 08 07xtAvIKiiWn\;P4:NVmU0]ZMeWr5vegp`tYicHF1+aasU6OE99%9fH21
     P21vBHf KC2022 08 07jp^m#G=dekCUTE!@*='$Lq-O=GBB:/g1GGXKnui4gfiu1D;;wthnH21
     P21vBHf 1C2022 08 08[q1(m.CO.$vf)D;LX\8!2I'?;$m]sO.^1FTXu6q\?pxkN4)*F-*N658
     P21vBHf 1C2022 08 08yRt]%for#Ed4G0CZ,_pWB6't[0.?:UD]`C54Z;7YL'ioaO.2a*h$658
     P21vBHf 1C2022 08 08]xgV8v\6YC4HWn=INvuV@Dqo,)07+yoCw\yjX\ZkYn:j=W9kTh!N658
     P21vBHf 1C2022 08 082MCsV.0-Y_^8(NNct-14RNEktSZu'FH%?Y3)u@c4XYaaU$[5ondo658
     P21vBHf 1C2022 08 08:8Ht3*t6/noBQD:2NM855Gmpd)@XG5r_7FLAub*i1Lt/B5Aq4`Q[658
     P21vBHf ^C2022 08 08.55094422 54 37.200+03 40 09.44   ~88M7 21.31GVNEOCP568
     P21vBHf ^C2022 08 08.55266422 54 36.990+03 40 10.49   ~88M7 21.75GVNEOCP568
     P21vBHf KC2022 08 17.y7B281^Q+#DZ@(#+Uw;explanationQf6)$=4`K69b2KTC0+obxH21
     P21vBHf KC2022 08 17O\Rh5))gpsiSx,g81$Qsj#'43fh(Of11lcS(F\o08o.y70oQ^_.eH21
     P21vBHf KC2022 08 17su,;W['hFt+R6KHF=r.p/b'$n?c^7RjR/K4RL.]Ldii8=,dK#Mh^H21
     P21vBHf KC2022 08 17+\#n8a_D,lT1,]hCc,guYC[CH8p6v!LSI?occ!/=25#pW!Y=h98GH21
     P21vBHf KC2022 08 18\MD_f:uboprAe[*fjRY%jZ\-HOyI2MmK9aUVKOCjd(0/*chce3D!H21
     P21vBHf KC2022 08 18@FQ@p=Gch`Kho[kudhe)pv89Z$mbZ4.1.$(UBpoG8d(]9G%PvUhQH21
     P21vBHf KC2022 08 18nHor1,*?=lxyG@opgb4IENp%-FVbh-V7V(SA57`,)8,*XUyqh#qsH21
     P21vBHf  C2022 08 19vItReb9ASI$`jmwQSC_0Vod/fS2]I`ZM428vL4Pul6@_hq8HnRYJF51
     P21vBHf KC2022 08 24GwZ3*lKT,+[@qs=waGsS7mlY_(27;]^8=Kwcv+p[f6S9-PU.#.pUH21
     P21vBHf KC2022 08 2434:;GQV^iIUnFE+hqY3d@d?)A(]8]pQ2M(BeKk@sk9v[yG:225P+H21
     P21vBHf KC2022 08 24rr3U0J%6!7]4)b%$\K=TGRSoG@[\p@Th.cxXhi4ZaqnD4MHpx?$FH21

Station data:
(568) Mauna Kea  (N19.826114 W155.472200)  US/Hawaii.  Observers R.
   Wainscoat, R. Weryk. 3.6-m Canada-France-Hawaii Telescope + CCD2.24-m
   University of Hawaii reflector.
(658) Dominion Astrophysical Observatory  (N48.519984 W123.417000)
   Canada/BritColumbia.  Observer D. D. Balam. Measurers D. D. Balam, D. W.
   E. Green, C. E. Spratt. 1.82-m reflector + CCD.
(807) Cerro Tololo Observatory, La Serena  (S30.169133 W70.805900)  Chile.
   Observer R. Holmes. 0.61-m f/6.5 astrograph + CCD.
(F51) Pan-STARRS 1, Haleakala  (N20.707234 W156.255910)  US/Hawaii.
   Observers J. Bulger, T. Lowe, A. Schultz, M. Willman. Measurers K.
   Chambers, S. Chastel, T. de Boer, L. Denneau, J. Fairlamb, H. Flewelling,
   M. Huber, C.-C. Lin, E. Magnier, Y. Ramanjooloo, R. Wainscoat, R. Weryk.
   1.8-m Ritchey-Chrétien + CCD.
(F52) Pan-STARRS 2, Haleakala  (N20.707382 W156.255910)  US/Hawaii.
   Observers J. Bulger, T. Dukes, T. Lowe, A. Schultz, M. Willman. Measurers
   K. Chambers, S. Chastel, T. de Boer, L. Denneau, J. Fairlamb, H.
   Flewelling, M. Huber, C.-C. Lin, E. Magnier, Y. Ramanjooloo, R. Wainscoat,
   R. Weryk. 1.8-m Ritchey-Chrétien + CCD.
(H21) Astronomical Research Observatory, Westfield  (N39.483054 W87.968270)
   US/Illinois.  Observer R. Holmes. Measurers S. Foglia, L. Buzzi, T.
   Linder, R. Holmes. 0.76-m f/3.0 astrograph + CCD0.81-m f/4.0 astrograph +
   CCD0.61-m f/4.5 astrograph + CCD0.40-m f/5.32 astrograph + CCD.

Orbital elements:  P21vBHf
   Perihelion 2022 Sep 5.63386 +/- 0.0984 TT = 15:12:45 (JD 2459828.13386)
Epoch 2022 Aug 24.0 TT = JDT 2459815.5                        AutoNEOCP
M 359.97687698 +/- 0.0010           (J2000 ecliptic)
n   0.00183024 +/- 9.06e-5          Peri.   13.48030 +/- 0.023
a  66.1907310 +/- 2.08              Node   337.84293 +/- 0.0043
e   0.9494907 +/- 0.00164           Incl.   93.35530 +/- 0.019
P 538.51                   H 16.5   G  0.15   U  6.5
q 3.34324624 +/- 0.000625    Q 129.038215 +/- 4.17
36 of 37 observations 2022 July 29-Aug. 24; mean residual 0".28
Residuals in arcseconds: 
220729 F52  .12+  .35-    220806 H21  .04-  .04-    220817 H21  .32+  .57-    
220729 F52  .04+  .07-    220806 H21  .09-  .06-    220817 H21  .21+  .34-    
220729 F52  .03-  .37-    220806 H21  .28-  .12-    220817 H21  .22+  .18-    
220730 H21  .04-  .65+    220807 H21  .13-  .15+    220817 H21  .05-  .20-    
220730 H21  .20+  .25+    220807 H21  .23-  .15-    220818 H21  .18-  .06+    
220730 H21  .04+  .23+    220807 H21  .17-  .25+    220818 H21  .15-  .09-    
220801 807  .20-  .17-    220808 658( .29-  2.4+)   220818 H21  .01-  .01-    
220801 807  .14-  .01+    220808 658  .00   1.0+    220819 F51  .13-  .31-    
220801 807  .07+  .02-    220808 658  .39+  .85+    220824 H21  .00   .31+    
220801 568  .04-  .26-    220808 658  .21+  .52+    220824 H21  .04+  .13+    
220801 568  .01-  .29-    220808 658  .49+  .47+    220824 H21  .06-  .15+    
220801 568  .01-  .27-    220808 568  .06+  .42-    
220806 H21  .14-  .03-    220808 568  .22-  .47-    

Ephemerides (geocentric):
Date (UTC) HH   RA             Dec           delta  r     elong  mag " sig PA
---- --------  ------------   ------------  ------ ------ -----  --- --------
2022 08 24 21  22 22 14.493   +06 21 16.82  2.3669 3.3450 162.5 21.4 .161   6
2022 08 24 22  22 22 09.284   +06 21 39.02  2.3668 3.3450 162.5 21.4 .162   6
2022 08 24 23  22 22 04.073   +06 22 01.21  2.3667 3.3450 162.6 21.4 .164   6
2022 08 25 00  22 21 58.863   +06 22 23.38  2.3667 3.3450 162.6 21.4 .165   6
2022 08 25 01  22 21 53.651   +06 22 45.54  2.3666 3.3449 162.6 21.4 .167   6
2022 08 25 02  22 21 48.439   +06 23 07.69  2.3666 3.3449 162.6 21.4 .168   5
2022 08 25 03  22 21 43.227   +06 23 29.82  2.3665 3.3449 162.6 21.4 .170   5
2022 08 25 04  22 21 38.015   +06 23 51.93  2.3664 3.3449 162.6 21.4 .172   5
2022 08 25 05  22 21 32.801   +06 24 14.03  2.3664 3.3449 162.6 21.4 .173   5
2022 08 25 06  22 21 27.588   +06 24 36.11  2.3663 3.3449 162.7 21.4 .175   5
2022 08 25 07  22 21 22.374   +06 24 58.18  2.3663 3.3449 162.7 21.4 .176   5
2022 08 25 08  22 21 17.159   +06 25 20.24  2.3662 3.3449 162.7 21.4 .178   5
2022 08 25 09  22 21 11.944   +06 25 42.27  2.3662 3.3448 162.7 21.4 .179   4
2022 08 25 10  22 21 06.729   +06 26 04.30  2.3661 3.3448 162.7 21.4 .181   4
2022 08 25 11  22 21 01.513   +06 26 26.31  2.3661 3.3448 162.7 21.4 .183   4
2022 08 25 12  22 20 56.297   +06 26 48.30  2.3660 3.3448 162.7 21.4 .184   4
2022 08 25 13  22 20 51.080   +06 27 10.28  2.3660 3.3448 162.7 21.4 .186   4
2022 08 25 14  22 20 45.863   +06 27 32.24  2.3659 3.3448 162.8 21.4 .187   4
2022 08 25 15  22 20 40.645   +06 27 54.19  2.3659 3.3448 162.8 21.4 .189   4
2022 08 25 16  22 20 35.428   +06 28 16.12  2.3658 3.3448 162.8 21.4 .191   3
2022 08 25 17  22 20 30.209   +06 28 38.04  2.3658 3.3447 162.8 21.4 .192   3
2022 08 25 18  22 20 24.991   +06 28 59.94  2.3657 3.3447 162.8 21.4 .194   3
2022 08 25 19  22 20 19.772   +06 29 21.83  2.3657 3.3447 162.8 21.4 .195   3
2022 08 25 20  22 20 14.552   +06 29 43.70  2.3656 3.3447 162.8 21.4 .197   3
2022 08 25 21  22 20 09.333   +06 30 05.56  2.3656 3.3447 162.8 21.4 .199   3
2022 08 25 22  22 20 04.113   +06 30 27.40  2.3656 3.3447 162.9 21.4 .200   3
2022 08 25 23  22 19 58.892   +06 30 49.23  2.3655 3.3447 162.9 21.4 .202   3
2022 08 26 00  22 19 53.672   +06 31 11.04  2.3655 3.3447 162.9 21.4 .204   2
2022 08 26 01  22 19 48.450   +06 31 32.83  2.3654 3.3447 162.9 21.4 .205   2
2022 08 26 02  22 19 43.229   +06 31 54.62  2.3654 3.3446 162.9 21.4 .207   2
2022 08 26 03  22 19 38.007   +06 32 16.38  2.3654 3.3446 162.9 21.4 .209   2
2022 08 26 04  22 19 32.785   +06 32 38.13  2.3653 3.3446 162.9 21.4 .210   2
2022 08 26 05  22 19 27.563   +06 32 59.87  2.3653 3.3446 162.9 21.4 .212   2
2022 08 26 06  22 19 22.340   +06 33 21.58  2.3653 3.3446 162.9 21.4 .214   2
2022 08 26 07  22 19 17.117   +06 33 43.29  2.3652 3.3446 162.9 21.4 .216   2
2022 08 26 08  22 19 11.894   +06 34 04.98  2.3652 3.3446 162.9 21.4 .217   1
2022 08 26 09  22 19 06.671   +06 34 26.65  2.3651 3.3446 163.0 21.4 .219   1
2022 08 26 10  22 19 01.447   +06 34 48.31  2.3651 3.3446 163.0 21.4 .221   1
2022 08 26 11  22 18 56.223   +06 35 09.95  2.3651 3.3446 163.0 21.4 .222   1
2022 08 26 12  22 18 50.998   +06 35 31.58  2.3651 3.3445 163.0 21.4 .224   1
2022 08 26 13  22 18 45.774   +06 35 53.19  2.3650 3.3445 163.0 21.4 .226   1
2022 08 26 14  22 18 40.549   +06 36 14.79  2.3650 3.3445 163.0 21.4 .228   1
2022 08 26 15  22 18 35.324   +06 36 36.37  2.3650 3.3445 163.0 21.4 .229   1
2022 08 26 16  22 18 30.099   +06 36 57.93  2.3649 3.3445 163.0 21.4 .231   0
2022 08 26 17  22 18 24.873   +06 37 19.48  2.3649 3.3445 163.0 21.4 .233   0
2022 08 26 18  22 18 19.647   +06 37 41.02  2.3649 3.3445 163.0 21.4 .235   0
2022 08 26 19  22 18 14.421   +06 38 02.54  2.3649 3.3445 163.0 21.4 .236   0
2022 08 26 20  22 18 09.195   +06 38 24.04  2.3648 3.3445 163.0 21.4 .238   0